Orbital elements:
    C/2001 W2 (BATTERS)
Epoch 2002 Jan. 6.0 TT = JDT 2452280.5
T 2001 Dec. 23.91842 TT                                 MPC
q   1.0510658            (2000.0)            P               Q
n   0.01297691     Peri.  142.08594     +0.55929342     -0.07291528
a  17.9344677      Node   113.35583     -0.78670006     -0.36071242
e   0.9413941      Incl.  115.91310     +0.26133100     -0.92982252
P  75.95
Residuals in seconds of arc
011121 300  0.7-  0.2+    011124 900  0.9+  1.4+    011202 888  0.6+  0.2-
011121 300  0.1+  0.7-    011124 888  0.1+  0.2+    011202 888  0.4+  0.7-
011121 300  0.5-  0.6+    011124 340  0.0   0.2-    011202 888  0.2+  0.6-
011121 300  0.1+  0.1-    011124 888  0.3+  0.3-    011202 888  0.1+  0.6-
011121 300  1.1-  0.4+    011124 340  0.3-  0.2+    011202 461  0.5+  0.3-
011121 300  0.4-  0.3+    011124 888  0.2-  0.3+    011202 461  0.4+  0.3-
011121 300  0.1-  1.0-    011124 340  0.2-  0.6+    011202 461  0.4+  0.4-
011121 300  0.3+  1.1-    011124 903  0.7+  0.1+    011202 461  0.2+  0.2-
011121 300  0.6-  0.1-    011124 903  0.0   1.1+    011202 118  0.9+  0.6+
011121 300  0.8+  0.3-    011124 340  0.4-  0.0     011202 118  0.7+  0.7+
011121 300  1.2-  0.1+    011124 903  0.4+  0.4+    011202 118  0.3+  0.1-
011121 300  0.5-  0.1+    011124 367  0.4+  0.5-    011204 300  0.3+  1.1+
011121 046  0.0   0.7+    011124 367  0.8+  0.4-    011204 300  0.4+  1.1+
011121 046  0.2-  0.0     011124 367  0.4+  0.8-    011204 300  0.2+  1.4+
011121 046  0.3-  0.1+    011124 367  0.3+  0.7-    011204 300  0.2-  1.3+
011121 046  0.1-  0.2-    011124 367  0.4+  0.4-    011204 300  0.1+  1.3+
011121 046  0.2-  0.0     011124 213  1.9+  0.1-    011204 372  0.1+  0.0
011121 046  0.1-  0.1+    011124 213  0.3+  0.0     011204 372  0.3+  0.0
011121 046  0.2-  0.0     011124 213  0.4+  0.2-    011206 300  0.9+  0.7+
011121 046  0.1-  0.1-    011124 213  1.0-  0.2+    011206 300  1.0+  0.8+
011121 046  0.2-  0.1+    011124 213  1.3-  0.5+    011206 300  1.1+  0.7+
011121 118  0.8+  0.2+    011124 941  0.9+  0.7-    011206 300  1.0+  0.6+
011121 118  0.6+  0.5-    011124 941  1.1+  0.4-    011206 300  1.2+  0.9+
011121 118  0.0   0.1+    011124 118  0.3-  0.4+    011206 372  0.6+  0.8-
011121 118  0.1+  0.4-    011124 941  0.3+  0.4-    011206 372  0.3+  0.7-
011122 921 (3.5+  0.1-)   011124 118  0.3-  0.6+    011206 213  0.7+  0.0
011122 921  0.8+  0.3-    011124 118  0.2-  0.6+    011206 213  0.2+  0.2+
011122 921  0.9-  0.3+    011125 355  0.4+  0.7-    011206 213  0.8+  0.1+
011122 921  0.6-  0.7-    011125 355  0.2+  0.3-    011207 300  0.7+  0.5-
011122 402  0.0   0.0     011125 355  0.2+  1.0-    011207 300  0.7+  0.6-
011122 402  0.3-  0.0     011125 903  0.7+  0.5-    011207 300  0.6+  0.6-
011122 402  0.1+  0.1-    011125 903  1.0+  0.8-    011207 300  0.7+  0.4-
011122 402  0.1-  0.1-    011125 903  1.1+  0.3+    011207 300  0.6+  0.4-
011122 348  0.4-  1.3+    011125 170  1.3+  0.9-    011207 300  0.5+  0.4-
011122 867  0.1-  0.0     011125 170  0.3-  0.8-    011207 372  0.4-  0.2-
011122 867  0.1-  0.1-    011125 170 (2.6+  0.1+)   011207 372  0.1-  1.5-
011122 867  0.1-  0.1-    011126 300  0.2-  0.2+    011207 213  0.8-  1.3+
011122 348  0.5-  0.2+    011126 300  0.2-  0.1+    011207 213  0.5-  1.4+
011122 342  0.8-  0.0     011126 300  0.1-  0.2+    011207 213  1.7-  0.6-
011122 300  0.5-  0.3-    011126 300  0.0   0.1+    011208 349  1.1-  1.3+
011122 300  0.2-  0.4+    011126 300  0.2+  0.4+    011208 349  1.0-  1.2+
011122 349  0.3-  0.3+    011126 347  0.0   0.1+    011208 349  1.1-  1.2+
011122 348  0.2+  0.8+    011126 347  0.0   0.0     011208 349  1.2-  1.2+
011122 300  0.3-  0.3-    011126 347  0.4+  0.3-    011209 452 (3.6-  6.1+)
011122 348  0.5-  0.1+    011126 347  0.1-  0.1+    011209 452  0.7+  0.6-
011122 360  0.3-  0.0     011126 940  1.2-  0.9+    011209 452  0.9+  1.0+
011122 300  0.5-  1.0-    011126 940  0.1-  0.5+    011209 452  0.5+  0.8-
011122 349  0.5-  0.1+    011126 940  0.1+  1.0-    011209 452  1.4+  1.5-
011122 300  0.5-  0.0     011126 940  0.3-  0.5+    011209 300  0.6+  0.3+
011122 360  0.3-  0.1+    011126 940  0.2-  0.1-    011209 300  0.2+  0.1+
011122 300  0.6+  0.2-    011126 940  0.3-  0.8+    011209 300  0.3+  0.2-
011122 360  0.3-  0.3+    011126 940  1.1+  1.6-    011209 300  0.4+  0.8+
011122 300  0.6-  0.5+    011126 940 (0.6+  2.2-)   011209 300  0.7+  0.3+
011122 300  0.1-  0.6-    011126 118  0.1+  0.0     011209 300  0.1+  0.0
011122 300  0.2+  0.6+    011126 118  0.2-  0.4-    011209 300  0.6+  0.4-
011122 300  0.6+  0.5-    011126 118  0.1-  0.5+    011210 300  0.0   0.1+
011122 349  0.3-  0.8+    011127 347  0.4-  0.8+    011210 300  0.4+  0.2+
011122 342  1.1-  0.0     011127 347  0.3-  0.1+    011210 300  0.0   0.2+
011122 348  0.1-  0.3+    011127 941  0.3+  0.9-    011210 300  0.1+  0.0
011122 349  0.2-  0.1+    011127 941  0.7+  0.7-    011210 300  0.0   0.0
011122 341  0.1-  0.0     011127 941  0.2-  0.4-    011210 300  0.0   0.1+
011122 342  0.3-  0.1+    011127 941  1.2+  1.7-    011210 300  0.1-  0.2+
011122 341  0.3-  0.1-    011128 360  0.2-  0.2-    011211 452 (0.8-  5.1+)
011122 341  0.1+  0.1-    011128 360  0.1-  0.1-    011211 452 (0.1+  2.6+)
011122 347  0.1+  0.9+    011128 300  0.3-  0.2+    011211 452  0.1+  0.8+
011122 341  0.1-  0.2-    011128 300  0.1-  0.0     011211 300  0.4+  0.1-
011122 347  0.8-  0.2-    011128 300  0.4-  0.1+    011211 300  0.1+  0.5-
011122 347  0.0   0.8+    011128 300  0.3-  0.1+    011211 300  0.2+  0.2-
011122 340  0.8-  0.3+    011128 903  0.0   0.7-    011211 300  0.3+  0.8-
011122 340  1.0-  0.2+    011128 903  0.0   0.0     011211 300  0.1+  0.0
011122 340  1.2-  0.3-    011128 903  0.0   0.1-    011211 300  0.1+  0.3-
011122 340  0.8-  0.2-    011128 941  0.6+  1.4-    011211 372  0.7+  0.8+
011122 170  0.5-  0.4-    011128 941  0.8+  0.9-    011211 619 (3.2+  4.6-)
011122 170  0.9-  0.3+    011128 941  0.9+  0.9-    011211 619 (3.3+  5.8-)
011122 170  0.0   0.4-    011129 620  1.1+  1.9-    011211 619 (3.9+  6.5-)
011122 978 (0.0   2.7-)   011129 620 (2.3+  4.2-)   011211 619 (3.7+  6.3-)
011122 978 (2.6+  3.4-)   011129 213  1.0-  1.1-    011211 619 (3.4+  6.5-)
011123 402  0.1+  0.0     011129 213  0.7-  0.1+    011212 340  0.5-  0.0
011123 402  0.2-  0.1+    011129 620 (2.5+  3.9-)   011212 340  0.8-  0.2-
011123 402  0.2-  0.1+    011129 213  1.2-  0.6-    011212 340  0.7-  0.3-
011123 402  0.1-  0.1+    011130 903  0.3+  0.2+    011212 159  0.8-  0.5+
011123 349  0.1+  0.1+    011130 372  0.2-  0.1+    011212 159  0.7-  0.7+
011123 349  0.1-  0.1-    011130 903  0.9+  0.2+    011212 159  0.2-  0.4+
011123 900  0.5+  0.3+    011130 372  0.4-  0.2-    011212 159  0.5-  1.0+
011123 349  0.3-  0.5+    011130 300  0.4+  0.1-    011212 159  0.4-  0.6+
011123 349  0.3-  0.1+    011130 372  0.4-  0.2-    011213 372  0.7-  0.8+
011123 300  0.1+  0.1+    011130 300  0.3+  0.2+    011214 372  0.4+  0.5-
011123 300  0.0   0.2+    011130 300  0.7+  0.1+    011215 349  0.5-  0.4-
011123 300  0.1+  0.4+    011130 300  0.6+  0.5-    011215 349  0.3-  0.2-
011123 300  0.1-  0.2-    011130 300  0.9+  0.0     011215 349  0.2-  0.2-
011123 300  0.2-  0.1+    011130 903  0.9+  0.7+    011215 349  0.6-  0.1-
011123 888  0.2+  0.1-    011130 232  0.5-  1.1+    011215 340  0.4-  0.0
011123 900  0.6+  0.1-    011130 232  0.4-  0.5+    011215 340  0.7-  0.3-
011123 903  0.1-  0.4+    011130 232  0.6-  0.8+    011215 340  0.4-  0.4-
011123 888  0.4+  0.2-    011201 340  0.2+  0.2+    011222 349  0.5-  0.5+
011123 903  0.1-  0.9+    011201 300  0.0   0.4+    011222 349  0.2-  0.1-
011123 888  0.2+  0.2+    011201 340  0.3-  0.3+    011222 349  0.6-  0.2+
011123 903  0.7+  1.0+    011201 300  0.0   0.3+    011222 349  0.6-  0.5-
011123 888  0.1+  0.1-    011201 300  0.2-  0.6+    011222 340  0.0   0.0
011123 903  0.4+  0.7+    011201 300  0.1-  0.6+    011222 340  0.2-  0.2-
011123 372  0.1+  0.5+    011201 300  0.2-  0.7+    011222 340  0.7-  0.3-
011123 300  0.0   0.0     011201 300  0.1-  0.1+    011222 340  0.5-  0.0
011123 300  0.4+  0.5+    011201 340  0.2-  0.2+    011224 349  0.9-  0.6-
011123 372  0.1-  0.3-    011201 046  0.2-  0.0     011224 349  1.0-  0.8-
011123 557  0.1-  0.1-    011201 046  0.2-  0.1+    011224 349  0.6-  1.3-
011123 557  0.1-  0.2-    011201 046  0.2-  0.1+    011224 349  1.6-  1.4-
011123 557  0.0   0.1+    011201 046  0.2-  0.0     011230 340 (2.4+  0.6-)
011123 557  0.1+  0.2+    011201 213  0.4-  0.2+    011230 340  0.1-  0.2+
011123 170 (2.1-  0.1-)   011201 213  0.0   0.4-    011230 340 (3.4+  0.3-)
011123 170  0.3+  0.2-    011201 213  0.9-  0.4+    011230 340 (3.0+  0.6-)
011123 170  1.6+  1.2-    011201 213  0.8-  0.0     020603 474  0.4+  0.1-
011123 170  0.6-  1.1-    011202 349  0.1+  0.0     020603 474  0.3+  0.2+
011123 170 (1.5+  2.9-)   011202 349  0.1+  0.0     020603 474  0.1-  0.5+
011123 941  0.8+  0.8-    011202 349  0.2-  0.1+    020603 474  0.3-  0.3+
011123 941  0.1+  0.8-    011202 349  0.4+  0.1-    020607 809  0.2-  0.2-
011123 941  0.3-  0.8-    011202 903  0.5+  0.1+    020607 809  0.2-  0.1-
011123 941  0.3+  1.1-    011202 903  0.0   0.2-    020607 809  0.2-  0.1-
011124 349  0.2-  0.1+    011202 903  0.3+  0.8-    020607 809  0.1-  0.2-
011124 349  0.4-  0.1-    011202 300  0.8+  0.3-    020607 809  0.1-  0.2-
011124 349  0.5-  0.2+    011202 300  0.4+  0.0     020607 809  0.2-  0.2-
011124 900  1.5+  1.0+    011202 300  0.1+  0.2+
011124 349  0.7-  0.2+    011202 300  0.5+  0.3-

